Meteo pe oră la Dzierzgunka

Astăzi, 5 Martie, Vineri

Timp Temperatura Precipitaţii Vânt Presiune Umiditate
00:00 -3°C° 0 mm 2 m/s 749 mmHg 83%
01:00 -3°C° 0 mm 2 m/s 749 mmHg 84%
02:00 -3°C° 0 mm 2 m/s 749 mmHg 82%
03:00 -3°C° 0 mm 2 m/s 749 mmHg 80%
04:00 -4°C° 0 mm 2 m/s 749 mmHg 78%
05:00 -3°C° 0 mm 2 m/s 750 mmHg 76%
06:00 -3°C° 0 mm 2 m/s 750 mmHg 74%
07:00 -3°C° 0 mm 2 m/s 751 mmHg 73%
08:00 -2°C° 0 mm 2 m/s 751 mmHg 69%
09:00 -1°C° 0 mm 2 m/s 751 mmHg 64%
10:00 0°C° 0 mm 3 m/s 751 mmHg 60%
11:00 +1°C° 0.2 mm 3 m/s 752 mmHg 56%
12:00 +1°C° 0.2 mm 3 m/s 752 mmHg 51%
13:00 +2°C° 0 mm 3 m/s 752 mmHg 45%
14:00 +1°C° 0 mm 3 m/s 752 mmHg 45%
15:00 +1°C° 0 mm 3 m/s 753 mmHg 45%
16:00 +1°C° 0 mm 3 m/s 753 mmHg 45%
17:00 0°C° 0 mm 3 m/s 753 mmHg 52%
18:00 -1°C° 0 mm 3 m/s 754 mmHg 60%
19:00 -2°C° 0 mm 3 m/s 754 mmHg 67%
20:00 -2°C° 0 mm 3 m/s 754 mmHg 71%
21:00 -4°C° 0 mm 3 m/s 755 mmHg 75%
22:00 -4°C° 0 mm 3 m/s 755 mmHg 78%
23:00 -4°C° 0 mm 3 m/s 755 mmHg 78%

Mâine, 6 Martie, Sâmbătă

Timp Temperatura Precipitaţii Vânt Presiune Umiditate
00:00 -4°C° 0 mm 3 m/s 756 mmHg 79%
01:00 -4°C° 0 mm 3 m/s 756 mmHg 79%
02:00 -4°C° 0 mm 3 m/s 756 mmHg 78%
03:00 -4°C° 0 mm 3 m/s 756 mmHg 78%
04:00 -3°C° 0 mm 2 m/s 756 mmHg 78%
05:00 -3°C° 0 mm 2 m/s 757 mmHg 76%
06:00 -3°C° 0 mm 2 m/s 757 mmHg 75%
07:00 -3°C° 0 mm 2 m/s 757 mmHg 74%
08:00 -2°C° 0 mm 2 m/s 757 mmHg 67%
09:00 -1°C° 0 mm 2 m/s 757 mmHg 59%
10:00 0°C° 0 mm 3 m/s 757 mmHg 52%
11:00 +1°C° 0 mm 3 m/s 757 mmHg 50%
12:00 +1°C° 0 mm 4 m/s 757 mmHg 48%
13:00 +1°C° 0 mm 5 m/s 756 mmHg 46%
14:00 +1°C° 0 mm 5 m/s 756 mmHg 47%
15:00 +1°C° 0 mm 5 m/s 755 mmHg 49%
16:00 +1°C° 0 mm 5 m/s 755 mmHg 50%
17:00 0°C° 0 mm 5 m/s 754 mmHg 54%
18:00 -1°C° 0 mm 5 m/s 754 mmHg 57%
19:00 -2°C° 0 mm 5 m/s 753 mmHg 60%
20:00 -3°C° 0 mm 6 m/s 752 mmHg 68%
21:00 -2°C° 0 mm 6 m/s 752 mmHg 76%
22:00 -2°C° 0 mm 6 m/s 752 mmHg 84%
23:00 -2°C° 0 mm 7 m/s 751 mmHg 85%

Poimâine, 7 Martie, Duminică

Timp Temperatura Precipitaţii Vânt Presiune Umiditate
00:00 -2°C° 0 mm 8 m/s 750 mmHg 86%
01:00 -2°C° 0 mm 8 m/s 750 mmHg 87%
02:00 -2°C° 0.2 mm 8 m/s 749 mmHg 90%
03:00 -2°C° 0.2 mm 8 m/s 748 mmHg 92%
04:00 -4°C° 0.2 mm 8 m/s 748 mmHg 95%
05:00 -2°C° 0.3 mm 8 m/s 748 mmHg 95%
06:00 -2°C° 0.3 mm 8 m/s 748 mmHg 95%
07:00 -2°C° 0.3 mm 8 m/s 748 mmHg 95%
08:00 -2°C° 0.3 mm 7 m/s 748 mmHg 95%
09:00 -2°C° 0.3 mm 7 m/s 748 mmHg 95%
10:00 -2°C° 0.3 mm 6 m/s 748 mmHg 95%
11:00 -2°C° 0.6 mm 7 m/s 747 mmHg 95%
12:00 -2°C° 0.6 mm 7 m/s 747 mmHg 95%
13:00 -2°C° 0.6 mm 7 m/s 747 mmHg 95%
14:00 -2°C° 0.9 mm 6 m/s 747 mmHg 93%
15:00 -3°C° 0.9 mm 6 m/s 747 mmHg 91%
16:00 -2°C° 0.9 mm 5 m/s 747 mmHg 89%
17:00 -3°C° 0.2 mm 4 m/s 747 mmHg 86%
18:00 -3°C° 0.2 mm 4 m/s 747 mmHg 84%
19:00 -4°C° 0.2 mm 3 m/s 747 mmHg 81%
20:00 -4°C° 0 mm 3 m/s 748 mmHg 82%
21:00 -4°C° 0 mm 3 m/s 748 mmHg 84%
22:00 -5°C° 0 mm 3 m/s 748 mmHg 85%
23:00 -5°C° 0 mm 3 m/s 748 mmHg 85%

8 Martie, Luni

Timp Temperatura Precipitaţii Vânt Presiune Umiditate
00:00 -4°C° 0 mm 2 m/s 748 mmHg 85%
01:00 -4°C° 0 mm 2 m/s 748 mmHg 86%
02:00 -5°C° 0 mm 2 m/s 748 mmHg 85%
03:00 -5°C° 0 mm 2 m/s 748 mmHg 85%
04:00 -5°C° 0 mm 2 m/s 748 mmHg 85%
05:00 -5°C° 0 mm 3 m/s 749 mmHg 84%
06:00 -5°C° 0 mm 3 m/s 749 mmHg 84%
07:00 -4°C° 0 mm 3 m/s 749 mmHg 83%
08:00 -4°C° 0.1 mm 3 m/s 749 mmHg 78%
09:00 -3°C° 0.1 mm 4 m/s 750 mmHg 74%
10:00 -2°C° 0.1 mm 5 m/s 750 mmHg 69%
11:00 -2°C° 0.1 mm 5 m/s 750 mmHg 67%
12:00 -1°C° 0.1 mm 5 m/s 751 mmHg 65%
13:00 -2°C° 0.1 mm 6 m/s 751 mmHg 63%
14:00 -2°C° 0 mm 5 m/s 751 mmHg 64%
15:00 -2°C° 0 mm 5 m/s 751 mmHg 66%
16:00 -4°C° 0 mm 5 m/s 751 mmHg 68%
17:00 -3°C° 0 mm 4 m/s 752 mmHg 72%
18:00 -4°C° 0 mm 4 m/s 752 mmHg 77%
19:00 -5°C° 0 mm 3 m/s 753 mmHg 82%
20:00 -5°C° 0 mm 2 m/s 753 mmHg 82%
21:00 -5°C° 0 mm 2 m/s 754 mmHg 83%
22:00 -5°C° 0 mm 2 m/s 754 mmHg 84%
23:00 -3°C° 0 mm 1 m/s 754 mmHg 84%

9 Martie, Marţi

Timp Temperatura Precipitaţii Vânt Presiune Umiditate
00:00 -3°C° 0 mm 1 m/s 754 mmHg 84%
01:00 -3°C° 0 mm 1 m/s 755 mmHg 84%
02:00 -3°C° 0 mm 1 m/s 755 mmHg 83%
03:00 -3°C° 0 mm 1 m/s 755 mmHg 82%
04:00 -3°C° 0 mm 1 m/s 755 mmHg 82%
05:00 -3°C° 0 mm 1 m/s 755 mmHg 81%
06:00 -3°C° 0 mm 1 m/s 755 mmHg 79%
07:00 -3°C° 0 mm 1 m/s 755 mmHg 78%
08:00 -4°C° 0 mm 2 m/s 755 mmHg 73%
09:00 -3°C° 0 mm 2 m/s 755 mmHg 68%
10:00 -2°C° 0 mm 2 m/s 755 mmHg 63%
11:00 -2°C° 0 mm 2 m/s 755 mmHg 59%
12:00 -1°C° 0 mm 3 m/s 755 mmHg 55%
13:00 0°C° 0 mm 3 m/s 755 mmHg 52%
14:00 0°C° 0 mm 3 m/s 754 mmHg 52%
15:00 0°C° 0 mm 3 m/s 754 mmHg 52%
16:00 0°C° 0 mm 3 m/s 753 mmHg 51%
17:00 -1°C° 0 mm 2 m/s 753 mmHg 56%
18:00 -2°C° 0 mm 2 m/s 753 mmHg 61%
19:00 -3°C° 0 mm 2 m/s 753 mmHg 66%
20:00 -4°C° 0 mm 3 m/s 753 mmHg 66%
21:00 -4°C° 0 mm 3 m/s 753 mmHg 66%
22:00 -4°C° 0 mm 3 m/s 752 mmHg 67%
23:00 -4°C° 0 mm 4 m/s 752 mmHg 66%

10 Martie, Miercuri

Timp Temperatura Precipitaţii Vânt Presiune Umiditate
00:00 -3°C° 0 mm 4 m/s 752 mmHg 66%
01:00 -3°C° 0 mm 4 m/s 751 mmHg 66%
02:00 -3°C° 0 mm 4 m/s 751 mmHg 74%
03:00 -3°C° 0 mm 4 m/s 750 mmHg 81%
04:00 -3°C° 0 mm 4 m/s 750 mmHg 89%
05:00 -3°C° 0.1 mm 4 m/s 749 mmHg 91%
06:00 -2°C° 0.1 mm 4 m/s 749 mmHg 94%
07:00 -1°C° 0.1 mm 4 m/s 749 mmHg 97%
08:00 -1°C° 0.1 mm 4 m/s 749 mmHg 96%
09:00 -1°C° 0.1 mm 4 m/s 749 mmHg 96%
10:00 0°C° 0.1 mm 4 m/s 749 mmHg 96%
11:00 0°C° 0.1 mm 4 m/s 748 mmHg 96%
12:00 0°C° 0.1 mm 5 m/s 748 mmHg 96%
13:00 0°C° 0.1 mm 5 m/s 747 mmHg 96%
14:00 +1°C° 0 mm 5 m/s 747 mmHg 93%
15:00 +1°C° 0 mm 4 m/s 746 mmHg 89%
16:00 +1°C° 0 mm 4 m/s 745 mmHg 86%
17:00 +1°C° 0 mm 5 m/s 744 mmHg 84%
18:00 +1°C° 0 mm 5 m/s 744 mmHg 83%
19:00 +1°C° 0 mm 5 m/s 743 mmHg 81%
20:00 +1°C° 0 mm 6 m/s 742 mmHg 85%
21:00 +1°C° 0 mm 6 m/s 741 mmHg 88%
22:00 0°C° 0 mm 7 m/s 741 mmHg 91%
23:00 0°C° 0.3 mm 7 m/s 740 mmHg 92%
Arată mai mult

Formular de consimțământ

Meteoprog și furnizorii noștri de servicii pot stoca și accesa date personale, precum cookies, identificatori de dispozitiv sau alte tehnologii similare pe dispozitivul dumneavoastră și procesa astfel de date pentru a personaliza conținutul și reclamele, dar și pentru a oferi caracteristici de social media și pentru a analiza traficul.

  • Stocarea și/sau accesarea informațiilor pe dispozitivul dumneavoastră

    Cookies, identificatori de dispozitiv sau alte informații pot fi stocate sau accesate pe dispozitiv în scopurile indicate mai sus.

  • Reclame și conținut personalizat, evaluarea reclamelor și a conținutului, informații despre audiențe și dezvoltarea produselor

    Reclamele și conținutul pot fi personalizate pe baza unui profil. Pot fi adăugate date suplimentare pentru a personaliza mai bine reclamele și conținutul. Performanța reclamelor și conținutului poate fi măsurată. Pot fi obținute informații despre utilizatorii care au văzut reclamele și conținutul. Aceste date pot fi utilizate pentru a dezvolta sau îmbunătăți experiența utilizatorilor, sistemele și software-ul.

Dând clic pe ‘Sunt de acord’, permiteți utilizarea cookie-urilor menționate, a identificatorilor de dispozitiv, balizelor web sau altor tehnologii similare. Setările pot fi modificate din browser-ul dispozitivului dumneavoastră.

În anumite scopuri, interesele legitime pot prima asupra consimțământului. Puteți citi mai multe informații în acest sens în Politica privind Confidențialitatea Datelor și Cookie.